Tarboro, NC

1:55 PM EDT on May 21, 2018 (GMT -0400)
Tarboro-edgecombe

Weather History for KETC - July, 2012

Change the Weather History Date:

Wednesday, July 18, 2012

  Actual Average Record
Temperature  
Mean Temperature 84 °F -  
Max Temperature 99 °F 90 °F 100 °F (1983)
Min Temperature 76 °F 67 °F 56 °F (1987)
Cooling Degree Days 20    
Growing Degree Days 34 (Base 50)    
Moisture  
Dew Point 74 °F    
Average Humidity 71    
Maximum Humidity 89    
Minimum Humidity 50    
Precipitation  
Precipitation 0.00 in - - ()
Sea Level Pressure  
Sea Level Pressure 29.94 in    
Wind  
Wind Speed 6 mph (SSW)    
Max Wind Speed 13 mph    
Max Gust Speed 17 mph    
Visibility 10 miles    
Events      
Averages and records for this station are not official NWS values.
T = Trace of Precipitation, MM = Missing Value Source: NWS Daily Summary

Daily Weather History Graph

Daily Weather History Graph

Search for Another Location

Airport or City:

Astronomy

Jul. 18, 2012 Rise Set
Actual Time 6:07 AM EDT 8:25 PM EDT
Civil Twilight 5:38 AM EDT 8:54 PM EDT
Nautical Twilight 5:02 AM EDT 9:29 PM EDT
Astronomical Twilight 4:23 AM EDT 10:08 PM EDT
Moon 5:38 AM EDT (7/18) 7:55 PM EDT (7/18)
Length of Visible Light 15h 15m
Length of Day
14h 17m
Waning Crescent, 0% of the Moon is Illuminated
Jul 18
Waning Crescent
Jul 19
New
Jul 26
First Quarter
Aug 1
Full
Aug 9
Last Quarter

Hourly Weather History & Observations

Time (EDT) Temp. Heat Index Dew Point Humidity Pressure Visibility Wind Dir Wind Speed Gust Speed Precip Events Conditions
12:35 AM 80.2 °F 84.7 °F 73.6 °F 80% 29.94 in 10.0 mi SSW 4.6 mph - N/A   Clear
12:55 AM 79.7 °F - 73.4 °F 81% 29.94 in 10.0 mi SSW 5.8 mph - N/A   Clear
1:15 AM 79.5 °F - 73.4 °F 81% 29.94 in 10.0 mi SSW 4.6 mph - N/A   Clear
1:35 AM 78.8 °F - 73.4 °F 83% 29.94 in 10.0 mi SSW 3.5 mph - N/A   Clear
1:55 AM 78.8 °F - 73.2 °F 83% 29.94 in 10.0 mi SSW 3.5 mph - N/A   Clear
2:15 AM 78.3 °F - 73.0 °F 84% 29.93 in 10.0 mi SSW 4.6 mph - N/A   Clear
2:35 AM 77.9 °F - 73.0 °F 85% 29.93 in 10.0 mi SSW 4.6 mph - N/A   Clear
2:55 AM 77.7 °F - 73.0 °F 85% 29.93 in 10.0 mi SSW 3.5 mph - N/A   Clear
3:15 AM 77.4 °F - 72.9 °F 86% 29.93 in 10.0 mi SSW 3.5 mph - N/A   Clear
3:35 AM 77.0 °F - 72.9 °F 87% 29.93 in 10.0 mi South 3.5 mph - N/A   Clear
3:55 AM 77.0 °F - 72.9 °F 87% 29.93 in 10.0 mi South 4.6 mph - N/A   Clear
4:15 AM 77.0 °F - 72.9 °F 87% 29.93 in 10.0 mi SSW 4.6 mph - N/A   Clear
4:35 AM 76.6 °F - 72.9 °F 88% 29.93 in 10.0 mi SSW 3.5 mph - N/A   Clear
4:55 AM 76.3 °F - 72.7 °F 89% 29.93 in 10.0 mi SSW 4.6 mph - N/A   Clear
5:15 AM 76.5 °F - 72.7 °F 88% 29.94 in 10.0 mi SSW 3.5 mph - N/A   Clear
5:35 AM 76.3 °F - 72.7 °F 89% 29.94 in 10.0 mi South 3.5 mph - N/A   Clear
5:55 AM 76.3 °F - 72.7 °F 89% 29.95 in 10.0 mi SSW 3.5 mph - N/A   Clear
6:15 AM 76.1 °F - 72.7 °F 89% 29.95 in 10.0 mi South 4.6 mph - N/A   Clear
6:35 AM 76.1 °F - 72.7 °F 89% 29.95 in 10.0 mi South 3.5 mph - N/A   Clear
6:55 AM 76.3 °F - 72.9 °F 89% 29.95 in 10.0 mi SSW 4.6 mph - N/A   Scattered Clouds
7:15 AM 76.8 °F - 73.0 °F 88% 29.96 in 10.0 mi Calm Calm - N/A   Clear
7:35 AM 77.5 °F - 73.4 °F 87% 29.97 in 10.0 mi SW 6.9 mph - N/A   Scattered Clouds
7:55 AM 78.4 °F - 73.4 °F 84% 29.97 in 10.0 mi SSW 4.6 mph - N/A   Scattered Clouds
8:15 AM 79.3 °F - 73.6 °F 82% 29.97 in 10.0 mi SSW 5.8 mph - N/A   Scattered Clouds
8:35 AM 80.1 °F 84.5 °F 73.9 °F 81% 29.97 in 10.0 mi SSW 6.9 mph - N/A   Clear
8:55 AM 81.5 °F 87.4 °F 74.3 °F 79% 29.98 in 10.0 mi SW 5.8 mph - N/A   Clear
9:15 AM 83.1 °F 90.1 °F 74.5 °F 75% 29.97 in 10.0 mi SW 5.8 mph - N/A   Clear
9:35 AM 84.2 °F 91.9 °F 74.7 °F 73% 29.97 in 10.0 mi SW 4.6 mph - N/A   Clear
9:55 AM 85.8 °F 94.6 °F 74.8 °F 70% 29.98 in 10.0 mi SW 8.1 mph - N/A   Clear
10:35 AM 87.3 °F 96.8 °F 75.2 °F 67% 29.97 in 10.0 mi WSW 6.9 mph - N/A   Clear
10:55 AM 87.8 °F 97.6 °F 75.2 °F 66% 29.98 in 10.0 mi SW 5.8 mph - N/A   Clear
11:15 AM 88.7 °F 98.7 °F 75.2 °F 64% 29.98 in 10.0 mi SSW 10.4 mph - N/A   Clear
11:35 AM 89.2 °F 99.0 °F 74.8 °F 62% 29.98 in 10.0 mi South 6.9 mph - N/A   Clear
11:55 AM 89.8 °F 99.7 °F 74.5 °F 61% 29.97 in 10.0 mi SSW 8.1 mph - N/A   Clear
12:15 PM 90.3 °F 99.9 °F 74.3 °F 59% 29.97 in 10.0 mi WSW 10.4 mph - N/A   Clear
12:35 PM 90.9 °F 100.6 °F 74.3 °F 58% 29.97 in 10.0 mi SW 10.4 mph - N/A   Clear
12:55 PM 91.2 °F 100.8 °F 74.1 °F 57% 29.97 in 10.0 mi WSW 6.9 mph - N/A   Clear
1:15 PM 92.1 °F 103.0 °F 74.8 °F 57% 29.97 in 10.0 mi WSW 9.2 mph - N/A   Clear
1:35 PM 92.7 °F 103.0 °F 74.5 °F 55% 29.96 in 10.0 mi SW 9.2 mph - N/A   Clear
1:55 PM 93.2 °F 103.7 °F 74.5 °F 54% 29.95 in 10.0 mi SW 8.1 mph 17.3 mph N/A   Clear
2:15 PM 93.2 °F 103.7 °F 74.5 °F 54% 29.95 in 10.0 mi WSW 11.5 mph - N/A   Clear
2:35 PM 93.0 °F 103.2 °F 74.3 °F 54% 29.95 in 10.0 mi SW 10.4 mph 16.1 mph N/A   Scattered Clouds
2:55 PM 93.6 °F 104.5 °F 74.5 °F 54% 29.94 in 10.0 mi SSW 11.5 mph - N/A   Scattered Clouds
3:15 PM 93.7 °F 102.9 °F 73.2 °F 51% 29.94 in 10.0 mi SSW 9.2 mph - N/A   Scattered Clouds
3:35 PM 93.9 °F 103.4 °F 73.6 °F 51% 29.93 in 10.0 mi SSW 9.2 mph - N/A   Scattered Clouds
3:55 PM 93.7 °F 102.3 °F 72.3 °F 50% 29.92 in 10.0 mi SSW 12.7 mph 16.1 mph N/A   Scattered Clouds
4:15 PM 93.7 °F 102.9 °F 73.2 °F 51% 29.90 in 10.0 mi South 11.5 mph 16.1 mph N/A   Mostly Cloudy
4:35 PM 93.6 °F 103.2 °F 73.4 °F 52% 29.90 in 10.0 mi SW 10.4 mph 16.1 mph N/A   Scattered Clouds
4:55 PM 93.4 °F 102.8 °F 73.2 °F 52% 29.90 in 10.0 mi SW 8.1 mph - N/A   Scattered Clouds
5:15 PM 93.0 °F 101.9 °F 73.0 °F 52% 29.90 in 10.0 mi SW 5.8 mph - N/A   Scattered Clouds
5:35 PM 91.8 °F 100.3 °F 73.2 °F 54% 29.90 in 10.0 mi SSW 5.8 mph - N/A   Scattered Clouds
5:55 PM 89.8 °F 97.5 °F 72.7 °F 57% 29.90 in 10.0 mi SW 5.8 mph - N/A   Scattered Clouds
6:15 PM 88.3 °F 95.9 °F 72.9 °F 60% 29.91 in 10.0 mi SW 4.6 mph - N/A   Clear
6:35 PM 88.0 °F 96.0 °F 73.6 °F 62% 29.90 in 10.0 mi SSW 4.6 mph - N/A   Clear
6:55 PM 87.4 °F 95.8 °F 73.9 °F 64% 29.90 in 10.0 mi SSW 4.6 mph - N/A   Clear
7:15 PM 87.1 °F 95.4 °F 73.9 °F 65% 29.91 in 10.0 mi SSW 4.6 mph - N/A   Clear
7:35 PM 86.7 °F 95.0 °F 74.3 °F 66% 29.90 in 10.0 mi SSW 4.6 mph - N/A   Clear
7:55 PM 86.2 °F 94.2 °F 74.1 °F 67% 29.90 in 10.0 mi South 5.8 mph - N/A   Clear
8:15 PM 85.8 °F 93.0 °F 73.4 °F 66% 29.91 in 10.0 mi SSW 3.5 mph - N/A   Clear
8:35 PM 85.3 °F 92.2 °F 73.0 °F 67% 29.92 in 10.0 mi SSW 5.8 mph - N/A   Clear
8:55 PM 84.6 °F 91.4 °F 73.2 °F 69% 29.94 in 10.0 mi SSW 4.6 mph - N/A   Clear
9:15 PM 84.2 °F 90.6 °F 73.2 °F 69% 29.95 in 10.0 mi SSW 4.6 mph - N/A   Scattered Clouds
9:35 PM 84.2 °F 90.6 °F 73.0 °F 69% 29.96 in 10.0 mi SSW 6.9 mph - N/A   Clear
9:55 PM 83.8 °F 90.1 °F 73.0 °F 70% 29.97 in 10.0 mi SSW 8.1 mph - N/A   Clear
10:15 PM 83.5 °F 89.7 °F 73.0 °F 71% 29.98 in 10.0 mi SSW 6.9 mph - N/A   Clear
10:35 PM 83.3 °F 89.6 °F 73.4 °F 72% 29.98 in 10.0 mi SSW 6.9 mph - N/A   Clear
10:55 PM 82.8 °F 88.7 °F 73.4 °F 73% 29.97 in 10.0 mi South 8.1 mph - N/A   Clear
11:35 PM 82.0 °F 87.9 °F 73.8 °F 76% 29.98 in 10.0 mi SSW 6.9 mph - N/A   Clear
11:55 PM 81.7 °F 87.3 °F 73.8 °F 77% 29.99 in 10.0 mi SSW 8.1 mph - N/A   Clear